Terminal Aerodrome Forecast
Issued by NWS

Home | Current Version | Previous Version | Text Only | Print | Product List | Glossary On
Versions: 1 2 3 4 5 6 7 8 9 10 11
000
FTUS45 KPSR 202300
TAFBLH
TAF
KBLH 202321Z 2100/2124 35005KT P6SM BKN250=

USA.gov is the U.S. government's official web portal to all federal, state and local government web resources and services.